| time (UTC) | temp F | wind direction | speed MPH | gust MPH | rain 1hr in | rain 24hr in | rain mn in | humidity % | barometer mb |
| 20260510093141 | 64 | 47 | 0.0 | 0.0 | 0.00 | 0.00 | 0.00 | 99 | 1013.6 |
| 20260510092638 | 64 | 34 | 0.0 | 0.0 | 0.00 | 0.00 | 0.00 | 99 | 1013.5 |
| 20260510092133 | 64 | 44 | 0.0 | 0.0 | 0.00 | 0.00 | 0.00 | 99 | 1013.6 |
| 20260510091629 | 64 | 43 | 0.0 | 0.0 | 0.00 | 0.00 | 0.00 | 99 | 1013.4 |
| 20260510091125 | 64 | 44 | 0.0 | 0.0 | 0.00 | 0.00 | 0.00 | 99 | 1013.7 |
| 20260510090623 | 64 | 44 | 0.0 | 0.0 | 0.00 | 0.00 | 0.00 | 99 | 1013.8 |
| 20260510090119 | 64 | 34 | 0.0 | 0.0 | 0.00 | 0.00 | 0.00 | 99 | 1013.9 |
| 20260510085614 | 64 | 34 | 0.0 | 0.0 | 0.00 | 0.00 | 0.00 | 99 | 1013.9 |
| 20260510085109 | 64 | 33 | 0.0 | 0.0 | 0.00 | 0.00 | 0.00 | 99 | 1013.9 |
| 20260510084606 | 64 | 33 | 0.0 | 0.0 | 0.00 | 0.00 | 0.00 | 99 | 1013.6 |
| 20260510084103 | 64 | 33 | 0.0 | 0.0 | 0.00 | 0.00 | 0.00 | 99 | 1013.6 |
| 20260510083559 | 64 | 33 | 0.0 | 0.0 | 0.00 | 0.00 | 0.00 | 99 | 1013.7 |
| 20260510083055 | 64 | 33 | 0.0 | 0.0 | 0.00 | 0.00 | 0.00 | 99 | 1013.8 |
| 20260510082553 | 64 | 33 | 0.0 | 0.0 | 0.00 | 0.00 | 0.00 | 99 | 1013.6 |
| 20260510082048 | 64 | 33 | 0.0 | 0.0 | 0.00 | 0.00 | 0.00 | 99 | 1013.6 |
| 20260510081543 | 64 | 33 | 0.0 | 0.0 | 0.00 | 0.00 | 0.00 | 99 | 1013.6 |
| 20260510081039 | 64 | 33 | 0.0 | 0.0 | 0.00 | 0.00 | 0.00 | 99 | 1013.4 |
| 20260510080538 | 64 | 33 | 0.0 | 0.0 | 0.00 | 0.00 | 0.00 | 99 | 1013.5 |
| 20260510080035 | 64 | 50 | 0.0 | 0.0 | 0.00 | 0.00 | 0.00 | 99 | 1013.3 |
| 20260510075533 | 64 | 49 | 0.0 | 0.0 | 0.00 | 0.00 | 0.00 | 99 | 1013.1 |
| 20260510075029 | 64 | 57 | 0.0 | 0.0 | 0.00 | 0.00 | 0.00 | 99 | 1013.3 |
| 20260510074527 | 64 | 36 | 0.0 | 0.0 | 0.00 | 0.00 | 0.00 | 99 | 1013.1 |
| 20260510074022 | 64 | 36 | 0.0 | 0.0 | 0.00 | 0.00 | 0.00 | 99 | 1012.9 |
| 20260510073518 | 64 | 36 | 0.0 | 0.0 | 0.00 | 0.00 | 0.00 | 99 | 1013.1 |
| 20260510073016 | 64 | 44 | 0.0 | 0.0 | 0.00 | 0.00 | 0.00 | 99 | 1013.2 |
| 20260510072512 | 64 | 44 | 0.0 | 0.0 | 0.00 | 0.00 | 0.00 | 99 | 1013.0 |
| 20260510072008 | 63 | 43 | 0.0 | 0.0 | 0.00 | 0.00 | 0.00 | 99 | 1013.2 |
| 20260510071504 | 63 | 51 | 0.0 | 0.0 | 0.00 | 0.00 | 0.00 | 99 | 1013.1 |
| 20260510071003 | 63 | 56 | 0.0 | 0.0 | 0.00 | 0.00 | 0.00 | 99 | 1013.0 |
| 20260510070459 | 63 | 43 | 0.0 | 0.0 | 0.00 | 0.00 | 0.00 | 99 | 1013.1 |
| 20260510065955 | 63 | 43 | 0.0 | 0.0 | 0.00 | 0.00 | 0.00 | 99 | 1013.0 |
| 20260510065452 | 63 | 50 | 0.0 | 0.0 | 0.00 | 0.00 | 0.00 | 99 | 1013.2 |
| 20260510064948 | 63 | 50 | 0.0 | 0.0 | 0.00 | 0.00 | 0.00 | 99 | 1013.0 |
| 20260510064446 | 62 | 50 | 0.0 | 0.0 | 0.00 | 0.00 | 0.00 | 99 | 1013.1 |
| 20260510063942 | 62 | 51 | 0.0 | 0.0 | 0.00 | 0.00 | 0.00 | 99 | 1013.1 |
| 20260510063438 | 63 | 52 | 0.0 | 0.0 | 0.00 | 0.00 | 0.00 | 99 | 1012.9 |
| 20260510062937 | 63 | 52 | 0.0 | 0.0 | 0.00 | 0.00 | 0.00 | 99 | 1012.9 |
| 20260510062437 | 62 | 42 | 0.0 | 0.0 | 0.00 | 0.00 | 0.00 | 99 | 1013.2 |
| 20260510061932 | 63 | 34 | 0.0 | 0.0 | 0.00 | 0.00 | 0.00 | 99 | 1013.0 |
| 20260510061429 | 63 | 45 | 0.0 | 0.0 | 0.00 | 0.00 | 0.00 | 99 | 1013.0 |
| 20260510060925 | 63 | 61 | 0.0 | 0.0 | 0.00 | 0.00 | 0.00 | 99 | 1012.7 |
| 20260510060422 | 63 | 16 | 0.0 | 0.0 | 0.00 | 0.00 | 0.00 | 99 | 1013.2 |
| 20260510055919 | 63 | 70 | 0.0 | 0.0 | 0.00 | 0.00 | 0.00 | 99 | 1012.9 |
| 20260510055415 | 63 | 34 | 0.0 | 0.0 | 0.00 | 0.00 | 0.00 | 99 | 1012.9 |
| 20260510054913 | 64 | 34 | 0.0 | 0.0 | 0.00 | 0.00 | 0.00 | 99 | 1013.0 |
| 20260510054408 | 64 | 34 | 0.0 | 0.0 | 0.00 | 0.00 | 0.00 | 99 | 1012.8 |
| 20260510053903 | 64 | 50 | 0.0 | 0.0 | 0.00 | 0.00 | 0.00 | 99 | 1012.9 |
| 20260510053359 | 64 | 58 | 0.0 | 0.0 | 0.00 | 0.00 | 0.00 | 99 | 1012.8 |
| 20260510052855 | 64 | 52 | 0.0 | 0.0 | 0.00 | 0.00 | 0.00 | 99 | 1012.9 |
| 20260510052351 | 64 | 53 | 0.0 | 0.0 | 0.00 | 0.00 | 0.00 | 99 | 1013.1 |
| 20260510051847 | 64 | 47 | 0.0 | 0.0 | 0.00 | 0.00 | 0.00 | 99 | 1013.0 |
| 20260510051344 | 64 | 52 | 0.0 | 0.0 | 0.00 | 0.00 | 0.00 | 99 | 1012.9 |
| 20260510050841 | 64 | 50 | 0.0 | 0.0 | 0.00 | 0.00 | 0.00 | 99 | 1012.9 |
| 20260510050338 | 64 | 63 | 0.0 | 0.0 | 0.00 | 0.00 | 0.00 | 99 | 1012.9 |
| 20260510045835 | 64 | 56 | 0.0 | 0.0 | 0.00 | 0.89 | 0.89 | 99 | 1013.1 |
| 20260510045331 | 64 | 58 | 0.0 | 0.0 | 0.00 | 0.89 | 0.89 | 99 | 1012.9 |
| 20260510044829 | 64 | 63 | 0.0 | 0.0 | 0.00 | 0.89 | 0.89 | 99 | 1012.8 |
| 20260510044326 | 64 | 34 | 0.0 | 0.0 | 0.00 | 0.89 | 0.89 | 99 | 1013.2 |
| 20260510043822 | 64 | 34 | 0.0 | 0.0 | 0.00 | 0.89 | 0.89 | 99 | 1013.3 |
| 20260510043318 | 64 | 34 | 0.0 | 0.0 | 0.00 | 0.89 | 0.89 | 99 | 1013.2 |
| 20260510042816 | 64 | 34 | 0.0 | 0.0 | 0.00 | 0.89 | 0.89 | 99 | 1013.3 |
| 20260510042312 | 64 | 34 | 0.0 | 0.0 | 0.00 | 0.89 | 0.89 | 99 | 1013.4 |
| 20260510041808 | 64 | 30 | 0.0 | 0.0 | 0.00 | 0.89 | 0.89 | 99 | 1013.4 |
| 20260510041306 | 64 | 44 | 0.0 | 0.0 | 0.00 | 0.89 | 0.89 | 99 | 1013.3 |
| 20260510040803 | 64 | 63 | 0.0 | 0.0 | 0.00 | 0.89 | 0.89 | 99 | 1013.6 |
| 20260510040259 | 64 | 65 | 0.0 | 0.0 | 0.00 | 0.89 | 0.89 | 99 | 1013.5 |
| 20260510035755 | 64 | 63 | 0.0 | 0.0 | 0.00 | 0.89 | 0.89 | 99 | 1013.7 |
| 20260510035251 | 64 | 63 | 0.0 | 0.0 | 0.00 | 0.89 | 0.89 | 99 | 1013.8 |
| 20260510034747 | 64 | 64 | 0.0 | 0.0 | 0.00 | 0.89 | 0.89 | 99 | 1013.7 |
| 20260510034245 | 64 | 66 | 0.0 | 0.0 | 0.00 | 0.89 | 0.89 | 99 | 1013.7 |
| 20260510033741 | 64 | 58 | 0.0 | 0.0 | 0.00 | 0.89 | 0.89 | 99 | 1013.8 |
| 20260510033238 | 64 | 64 | 0.0 | 0.0 | 0.00 | 0.89 | 0.89 | 99 | 1013.7 |
| 20260510032734 | 64 | 58 | 0.0 | 0.0 | 0.00 | 0.89 | 0.89 | 99 | 1013.8 |
| 20260510032231 | 64 | 59 | 0.0 | 0.0 | 0.00 | 0.89 | 0.89 | 99 | 1013.7 |
| 20260510031725 | 64 | 59 | 0.0 | 0.0 | 0.00 | 0.89 | 0.89 | 99 | 1013.7 |
| 20260510031222 | 65 | 52 | 0.0 | 0.0 | 0.00 | 0.89 | 0.89 | 99 | 1013.6 |
| 20260510030721 | 65 | 50 | 0.0 | 0.0 | 0.00 | 0.89 | 0.89 | 99 | 1013.5 |
| 20260510030219 | 64 | 50 | 0.0 | 0.0 | 0.00 | 0.89 | 0.89 | 99 | 1013.2 |
| 20260510025716 | 65 | 51 | 0.0 | 0.0 | 0.00 | 0.89 | 0.89 | 99 | 1013.1 |
| 20260510025214 | 64 | 68 | 0.0 | 0.0 | 0.00 | 0.89 | 0.89 | 99 | 1013.4 |
| 20260510024710 | 64 | 63 | 0.0 | 0.0 | 0.00 | 0.89 | 0.89 | 99 | 1013.6 |
| 20260510024207 | 64 | 63 | 0.0 | 0.0 | 0.00 | 0.89 | 0.89 | 99 | 1013.7 |
| 20260510023702 | 64 | 45 | 0.0 | 0.0 | 0.00 | 0.89 | 0.89 | 99 | 1013.5 |
| 20260510023200 | 65 | 49 | 0.0 | 0.0 | 0.00 | 0.89 | 0.89 | 99 | 1013.4 |
| 20260510022656 | 65 | 63 | 0.0 | 0.0 | 0.00 | 0.89 | 0.89 | 99 | 1013.2 |
| 20260510022150 | 65 | 65 | 0.0 | 0.0 | 0.00 | 0.89 | 0.89 | 99 | 1013.3 |
| 20260510021646 | 65 | 58 | 0.0 | 0.0 | 0.00 | 0.89 | 0.89 | 99 | 1013.6 |
| 20260510021144 | 65 | 57 | 0.0 | 0.0 | 0.00 | 0.89 | 0.89 | 99 | 1013.6 |
| 20260510020638 | 65 | 63 | 0.0 | 0.0 | 0.00 | 0.89 | 0.89 | 99 | 1013.7 |
| 20260510020133 | 65 | 67 | 0.0 | 0.0 | 0.00 | 0.89 | 0.89 | 99 | 1013.7 |
| 20260510015630 | 65 | 39 | 0.0 | 0.0 | 0.00 | 0.89 | 0.89 | 99 | 1013.7 |
| 20260510015126 | 65 | 63 | 0.0 | 0.0 | 0.00 | 0.89 | 0.89 | 99 | 1013.5 |
| 20260510014621 | 65 | 30 | 0.0 | 0.0 | 0.00 | 0.89 | 0.89 | 99 | 1013.5 |
| 20260510014120 | 65 | 20 | 0.0 | 0.0 | 0.00 | 0.89 | 0.89 | 99 | 1013.2 |
| 20260510013619 | 65 | 35 | 0.0 | 0.0 | 0.00 | 0.89 | 0.89 | 99 | 1013.4 |
| 20260510013115 | 65 | 35 | 0.0 | 0.0 | 0.00 | 0.89 | 0.89 | 99 | 1013.4 |
| 20260510012614 | 65 | 35 | 0.0 | 0.0 | 0.00 | 0.89 | 0.89 | 99 | 1013.1 |
| 20260510012111 | 65 | 3 | 0.0 | 0.0 | 0.00 | 0.89 | 0.89 | 99 | 1013.2 |
| 20260510011610 | 65 | 21 | 0.0 | 0.0 | 0.00 | 0.89 | 0.89 | 99 | 1012.9 |
| 20260510011107 | 65 | 38 | 0.0 | 0.0 | 0.00 | 0.89 | 0.89 | 99 | 1012.7 |
| 20260510010603 | 65 | 47 | 0.0 | 0.0 | 0.00 | 0.89 | 0.89 | 99 | 1012.7 |
| 20260510010101 | 65 | 43 | 0.0 | 0.0 | 0.00 | 0.89 | 0.89 | 99 | 1012.5 |
| 20260510005556 | 65 | 53 | 0.0 | 0.0 | 0.00 | 0.89 | 0.89 | 99 | 1012.8 |
| 20260510005054 | 65 | 48 | 0.0 | 0.0 | 0.00 | 0.89 | 0.89 | 99 | 1012.8 |
| 20260510004552 | 65 | 50 | 0.0 | 0.0 | 0.00 | 0.89 | 0.89 | 99 | 1012.7 |
| 20260510004049 | 65 | 11 | 0.0 | 0.0 | 0.00 | 0.89 | 0.89 | 99 | 1012.8 |
| 20260510003546 | 65 | 68 | 0.0 | 0.0 | 0.00 | 0.89 | 0.89 | 99 | 1012.7 |
| 20260510003041 | 66 | 55 | 0.0 | 0.0 | 0.00 | 0.89 | 0.89 | 99 | 1013.0 |
| 20260510002537 | 66 | 35 | 0.0 | 0.0 | 0.00 | 0.89 | 0.89 | 99 | 1012.6 |
| 20260510002034 | 65 | 86 | 1.0 | 1.0 | 0.00 | 0.89 | 0.89 | 99 | 1012.6 |
| 20260510001531 | 65 | 338 | 1.0 | 1.0 | 0.00 | 0.89 | 0.89 | 99 | 1012.4 |
| 20260510001030 | 65 | 55 | 0.0 | 0.0 | 0.00 | 0.89 | 0.89 | 99 | 1011.9 |
| 20260510000524 | 65 | 56 | 0.0 | 0.0 | 0.00 | 0.89 | 0.89 | 99 | 1012.1 |
| 20260510000021 | 66 | 10 | 0.0 | 0.0 | 0.00 | 0.89 | 0.89 | 99 | 1012.3 |
| 20260509235518 | 66 | 45 | 0.0 | 0.0 | 0.00 | 0.89 | 0.89 | 99 | 1012.2 |
| 20260509235015 | 65 | 45 | 0.0 | 0.0 | 0.00 | 0.89 | 0.89 | 99 | 1012.3 |
| 20260509234511 | 66 | 42 | 0.0 | 0.0 | 0.00 | 0.89 | 0.89 | 99 | 1012.3 |
| 20260509234009 | 66 | 48 | 0.0 | 0.0 | 0.00 | 0.89 | 0.89 | 99 | 1011.9 |
| 20260509233507 | 66 | 59 | 0.0 | 0.0 | 0.00 | 0.89 | 0.89 | 99 | 1012.0 |
| 20260509233004 | 66 | 63 | 0.0 | 0.0 | 0.00 | 0.89 | 0.89 | 99 | 1012.0 |
| 20260509232500 | 66 | 48 | 0.0 | 0.0 | 0.00 | 0.89 | 0.89 | 99 | 1012.2 |
| 20260509231956 | 66 | 70 | 0.0 | 0.0 | 0.00 | 0.89 | 0.89 | 99 | 1012.2 |
| 20260509231453 | 66 | 61 | 0.0 | 0.0 | 0.00 | 0.89 | 0.89 | 99 | 1012.2 |
| 20260509230951 | 66 | 63 | 0.0 | 0.0 | 0.00 | 0.89 | 0.89 | 99 | 1012.3 |
| 20260509230447 | 66 | 54 | 0.0 | 0.0 | 0.00 | 0.89 | 0.89 | 99 | 1012.1 |
| 20260509225944 | 66 | 45 | 0.0 | 0.0 | 0.00 | 0.89 | 0.89 | 99 | 1012.0 |
| 20260509225440 | 66 | 46 | 0.0 | 0.0 | 0.00 | 0.89 | 0.89 | 99 | 1012.0 |
| 20260509224936 | 66 | 40 | 0.0 | 0.0 | 0.00 | 0.89 | 0.89 | 99 | 1011.8 |
| 20260509224431 | 66 | 51 | 0.0 | 0.0 | 0.00 | 0.89 | 0.89 | 99 | 1011.5 |
| 20260509223929 | 66 | 45 | 0.0 | 0.0 | 0.00 | 0.89 | 0.89 | 99 | 1011.8 |
| 20260509223425 | 66 | 57 | 0.0 | 0.0 | 0.00 | 0.89 | 0.89 | 99 | 1011.9 |
| 20260509222923 | 66 | 43 | 0.0 | 0.0 | 0.00 | 0.89 | 0.89 | 99 | 1011.6 |
| 20260509222418 | 67 | 58 | 0.0 | 0.0 | 0.00 | 0.89 | 0.89 | 99 | 1011.5 |
| 20260509221914 | 67 | 58 | 0.0 | 0.0 | 0.00 | 0.89 | 0.89 | 99 | 1011.4 |
| 20260509221411 | 66 | 58 | 0.0 | 0.0 | 0.00 | 0.89 | 0.89 | 99 | 1011.6 |
| 20260509220907 | 66 | 58 | 0.0 | 0.0 | 0.00 | 0.89 | 0.89 | 99 | 1011.4 |
| 20260509220403 | 66 | 54 | 0.0 | 0.0 | 0.00 | 0.89 | 0.89 | 99 | 1011.4 |
| 20260509215858 | 66 | 54 | 0.0 | 0.0 | 0.00 | 0.89 | 0.89 | 99 | 1011.3 |
| 20260509215355 | 66 | 54 | 0.0 | 0.0 | 0.00 | 0.89 | 0.89 | 99 | 1011.2 |
| 20260509214852 | 66 | 46 | 0.0 | 0.0 | 0.00 | 0.89 | 0.89 | 99 | 1011.2 |
| 20260509214349 | 66 | 44 | 0.0 | 0.0 | 0.00 | 0.89 | 0.89 | 99 | 1011.2 |
| 20260509213846 | 66 | 52 | 0.0 | 0.0 | 0.00 | 0.89 | 0.89 | 99 | 1011.1 |
| 20260509213341 | 66 | 63 | 0.0 | 0.0 | 0.00 | 0.89 | 0.89 | 99 | 1011.0 |
| 20260509212839 | 66 | 68 | 0.0 | 0.0 | 0.00 | 0.89 | 0.89 | 99 | 1011.1 |
| 20260509212337 | 66 | 52 | 0.0 | 0.0 | 0.00 | 0.89 | 0.89 | 99 | 1011.1 |
| 20260509211832 | 66 | 39 | 0.0 | 0.0 | 0.00 | 0.89 | 0.89 | 99 | 1011.0 |
| 20260509211328 | 66 | 61 | 0.0 | 0.0 | 0.00 | 0.89 | 0.89 | 99 | 1011.1 |
| 20260509210825 | 66 | 71 | 0.0 | 0.0 | 0.00 | 0.89 | 0.89 | 99 | 1011.2 |
| 20260509210323 | 66 | 71 | 0.0 | 0.0 | 0.00 | 0.89 | 0.89 | 99 | 1011.1 |
| 20260509205822 | 66 | 42 | 0.0 | 0.0 | 0.00 | 0.89 | 0.89 | 99 | 1011.4 |
| 20260509205317 | 66 | 44 | 0.0 | 0.0 | 0.00 | 0.89 | 0.89 | 99 | 1011.4 |
| 20260509204814 | 66 | 68 | 0.0 | 0.0 | 0.00 | 0.89 | 0.89 | 99 | 1011.5 |
| 20260509204310 | 66 | 68 | 0.0 | 0.0 | 0.00 | 0.89 | 0.89 | 99 | 1011.7 |
| 20260509203807 | 66 | 68 | 0.0 | 0.0 | 0.00 | 0.89 | 0.89 | 99 | 1011.4 |
| 20260509203304 | 66 | 89 | 0.0 | 1.0 | 0.00 | 0.89 | 0.89 | 99 | 1011.7 |
| 20260509202800 | 66 | 81 | 0.0 | 0.0 | 0.00 | 0.89 | 0.89 | 99 | 1011.8 |
| 20260509202256 | 66 | 67 | 0.0 | 0.0 | 0.00 | 0.89 | 0.89 | 99 | 1012.0 |
| 20260509201755 | 66 | 73 | 0.0 | 0.0 | 0.00 | 0.89 | 0.89 | 99 | 1011.8 |
| 20260509201252 | 66 | 77 | 0.0 | 0.0 | 0.00 | 0.89 | 0.89 | 99 | 1011.7 |
| 20260509200749 | 67 | 62 | 0.0 | 0.0 | 0.00 | 0.89 | 0.89 | 99 | 1011.8 |
| 20260509200244 | 66 | 55 | 0.0 | 0.0 | 0.00 | 0.89 | 0.89 | 99 | 1011.6 |
| 20260509195740 | 66 | 62 | 0.0 | 0.0 | 0.00 | 0.89 | 0.89 | 99 | 1011.5 |
| 20260509195236 | 66 | 53 | 0.0 | 0.0 | 0.00 | 0.89 | 0.89 | 99 | 1011.8 |
| 20260509194731 | 67 | 65 | 0.0 | 0.0 | 0.00 | 0.89 | 0.89 | 99 | 1011.7 |
| 20260509194227 | 67 | 55 | 0.0 | 0.0 | 0.00 | 0.89 | 0.89 | 99 | 1011.6 |
| 20260509193724 | 66 | 60 | 0.0 | 0.0 | 0.00 | 0.89 | 0.89 | 99 | 1011.7 |
| 20260509193224 | 66 | 62 | 0.0 | 0.0 | 0.00 | 0.89 | 0.89 | 99 | 1011.8 |
| 20260509192720 | 66 | 76 | 0.0 | 0.0 | 0.00 | 0.89 | 0.89 | 99 | 1012.0 |
| 20260509192215 | 66 | 76 | 0.0 | 0.0 | 0.00 | 0.89 | 0.89 | 99 | 1012.1 |
| 20260509191711 | 66 | 74 | 0.0 | 0.0 | 0.00 | 0.89 | 0.89 | 99 | 1012.2 |
| 20260509191207 | 66 | 78 | 0.0 | 0.0 | 0.00 | 0.89 | 0.89 | 99 | 1012.2 |
| 20260509190704 | 66 | 74 | 0.0 | 0.0 | 0.00 | 0.89 | 0.89 | 99 | 1012.1 |
| 20260509190201 | 66 | 71 | 0.0 | 0.0 | 0.00 | 0.89 | 0.89 | 99 | 1012.4 |
| 20260509185659 | 66 | 80 | 0.0 | 0.0 | 0.00 | 0.89 | 0.89 | 99 | 1012.2 |
| 20260509185154 | 67 | 64 | 0.0 | 0.0 | 0.00 | 0.89 | 0.89 | 99 | 1012.1 |
| 20260509184652 | 67 | 51 | 0.0 | 0.0 | 0.00 | 0.89 | 0.89 | 99 | 1011.9 |
| 20260509184149 | 67 | 18 | 0.0 | 0.0 | 0.00 | 0.89 | 0.89 | 99 | 1012.0 |
| 20260509183645 | 67 | 71 | 0.0 | 0.0 | 0.00 | 0.89 | 0.89 | 99 | 1011.9 |
| 20260509183140 | 67 | 71 | 0.0 | 0.0 | 0.00 | 0.89 | 0.89 | 99 | 1011.9 |
| 20260509182636 | 67 | 56 | 0.0 | 0.0 | 0.00 | 0.89 | 0.89 | 99 | 1012.0 |
| 20260509182134 | 66 | 59 | 0.0 | 0.0 | 0.00 | 0.89 | 0.89 | 99 | 1011.9 |
| 20260509181632 | 66 | 69 | 0.0 | 0.0 | 0.00 | 0.89 | 0.89 | 99 | 1012.0 |
| 20260509181129 | 66 | 60 | 0.0 | 0.0 | 0.00 | 0.89 | 0.89 | 99 | 1012.0 |
| 20260509180625 | 67 | 73 | 0.0 | 0.0 | 0.00 | 0.89 | 0.89 | 99 | 1011.9 |
| 20260509180122 | 66 | 58 | 0.0 | 0.0 | 0.00 | 0.89 | 0.89 | 99 | 1011.9 |
| 20260509175617 | 66 | 58 | 0.0 | 0.0 | 0.00 | 0.89 | 0.89 | 99 | 1011.8 |
| 20260509175115 | 66 | 90 | 0.0 | 0.0 | 0.00 | 0.89 | 0.89 | 99 | 1012.0 |
| 20260509174611 | 66 | 63 | 0.0 | 0.0 | 0.00 | 0.89 | 0.89 | 99 | 1011.8 |
| 20260509174106 | 66 | 64 | 0.0 | 0.0 | 0.00 | 0.89 | 0.89 | 99 | 1011.8 |
| 20260509173601 | 67 | 73 | 0.0 | 0.0 | 0.00 | 0.89 | 0.89 | 99 | 1011.8 |
| 20260509173058 | 66 | 51 | 0.0 | 0.0 | 0.00 | 0.89 | 0.89 | 99 | 1012.1 |
| 20260509172555 | 66 | 47 | 0.0 | 0.0 | 0.00 | 0.89 | 0.89 | 99 | 1012.2 |
| 20260509172050 | 66 | 21 | 0.0 | 0.0 | 0.00 | 0.89 | 0.89 | 99 | 1012.2 |
| 20260509171546 | 66 | 252 | 0.0 | 0.0 | 0.00 | 0.89 | 0.89 | 99 | 1012.5 |
| 20260509171043 | 66 | 31 | 0.0 | 0.0 | 0.00 | 0.89 | 0.89 | 99 | 1012.3 |
| 20260509170539 | 65 | 37 | 0.0 | 0.0 | 0.00 | 0.89 | 0.89 | 99 | 1012.4 |
| 20260509170035 | 65 | 36 | 0.0 | 0.0 | 0.00 | 0.89 | 0.89 | 99 | 1012.5 |
| 20260509165534 | 65 | 37 | 0.0 | 0.0 | 0.00 | 0.89 | 0.89 | 99 | 1012.5 |
| 20260509165029 | 66 | 31 | 0.0 | 0.0 | 0.00 | 0.89 | 0.89 | 99 | 1013.0 |
| 20260509164526 | 66 | 63 | 0.0 | 0.0 | 0.00 | 0.89 | 0.89 | 99 | 1013.0 |
| 20260509164021 | 66 | 61 | 0.0 | 0.0 | 0.00 | 0.89 | 0.89 | 99 | 1013.3 |
| 20260509163519 | 66 | 43 | 0.0 | 0.0 | 0.00 | 0.89 | 0.89 | 99 | 1013.2 |
| 20260509163014 | 65 | 54 | 0.0 | 0.0 | 0.00 | 0.89 | 0.89 | 99 | 1013.2 |
| 20260509162512 | 66 | 43 | 0.0 | 0.0 | 0.00 | 0.89 | 0.89 | 99 | 1013.1 |
| 20260509162008 | 66 | 41 | 0.0 | 0.0 | 0.00 | 0.89 | 0.89 | 99 | 1013.4 |
| 20260509161505 | 66 | 65 | 0.0 | 0.0 | 0.00 | 0.89 | 0.89 | 99 | 1013.1 |
| 20260509160959 | 66 | 15 | 0.0 | 1.0 | 0.00 | 0.89 | 0.89 | 99 | 1013.0 |
| 20260509160455 | 65 | 6 | 0.0 | 0.0 | 0.00 | 0.89 | 0.89 | 99 | 1012.8 |
| 20260509155950 | 65 | 355 | 0.0 | 0.0 | 0.00 | 0.89 | 0.89 | 99 | 1012.8 |
| 20260509155447 | 65 | 24 | 0.0 | 0.0 | 0.00 | 0.89 | 0.89 | 99 | 1012.6 |
| 20260509154944 | 64 | 36 | 0.0 | 0.0 | 0.00 | 0.89 | 0.89 | 99 | 1012.5 |
| 20260509154440 | 64 | 36 | 0.0 | 0.0 | 0.00 | 0.89 | 0.89 | 99 | 1012.6 |
| 20260509153937 | 64 | 17 | 0.0 | 0.0 | 0.00 | 0.89 | 0.89 | 99 | 1012.4 |
| 20260509153434 | 64 | 306 | 0.0 | 1.0 | 0.00 | 0.89 | 0.89 | 99 | 1012.1 |
| 20260509152931 | 65 | 93 | 0.0 | 0.0 | 0.00 | 0.89 | 0.89 | 99 | 1012.2 |
| 20260509152427 | 64 | 93 | 0.0 | 0.0 | 0.00 | 0.89 | 0.89 | 99 | 1012.3 |
| 20260509151924 | 64 | 93 | 0.0 | 0.0 | 0.00 | 0.89 | 0.89 | 99 | 1012.6 |
| 20260509151420 | 64 | 93 | 0.0 | 0.0 | 0.00 | 0.89 | 0.89 | 99 | 1012.6 |
| 20260509150919 | 64 | 45 | 0.0 | 0.0 | 0.00 | 0.89 | 0.89 | 99 | 1012.6 |
| 20260509150415 | 64 | 27 | 0.0 | 0.0 | 0.00 | 0.89 | 0.89 | 99 | 1012.5 |
| 20260509145914 | 64 | 52 | 0.0 | 0.0 | 0.00 | 0.89 | 0.89 | 99 | 1012.1 |
| 20260509145413 | 64 | 45 | 0.0 | 1.0 | 0.00 | 0.89 | 0.89 | 99 | 1012.4 |
| 20260509144909 | 64 | 56 | 0.0 | 0.0 | 0.00 | 0.89 | 0.89 | 99 | 1012.3 |
| 20260509144406 | 64 | 56 | 0.0 | 0.0 | 0.00 | 0.89 | 0.89 | 99 | 1012.4 |
| 20260509143903 | 64 | 57 | 0.0 | 0.0 | 0.00 | 0.89 | 0.89 | 99 | 1012.4 |
| 20260509143401 | 63 | 22 | 0.0 | 0.0 | 0.00 | 0.89 | 0.89 | 99 | 1012.2 |
| 20260509142857 | 63 | 6 | 0.0 | 0.0 | 0.00 | 0.89 | 0.89 | 99 | 1011.9 |
| 20260509142354 | 63 | 35 | 0.0 | 0.0 | 0.00 | 0.89 | 0.89 | 99 | 1011.4 |
| 20260509141849 | 63 | 44 | 1.0 | 2.0 | 0.00 | 0.89 | 0.89 | 99 | 1011.8 |
| 20260509141346 | 63 | 2 | 0.0 | 0.0 | 0.05 | 0.89 | 0.89 | 99 | 1011.1 |
| 20260509140843 | 63 | 291 | 1.0 | 1.0 | 0.12 | 0.89 | 0.89 | 99 | 1010.8 |
| 20260509140340 | 63 | 86 | 0.0 | 0.0 | 0.12 | 0.88 | 0.88 | 99 | 1011.3 |
| 20260509135838 | 63 | 89 | 0.0 | 0.0 | 0.24 | 0.87 | 0.87 | 99 | 1011.7 |
| 20260509135335 | 63 | 92 | 0.0 | 0.0 | 0.31 | 0.86 | 0.86 | 99 | 1011.7 |
| 20260509134832 | 63 | 43 | 0.0 | 0.0 | 0.17 | 0.83 | 0.83 | 99 | 1011.6 |
| 20260509134329 | 63 | 57 | 0.0 | 0.0 | 0.19 | 0.81 | 0.81 | 99 | 1012.1 |
| 20260509133826 | 63 | 51 | 0.0 | 0.0 | 0.31 | 0.80 | 0.80 | 99 | 1012.2 |
| 20260509133323 | 63 | 44 | 0.0 | 0.0 | 0.35 | 0.78 | 0.78 | 99 | 1011.9 |
| 20260509132822 | 63 | 65 | 0.0 | 0.0 | 0.31 | 0.75 | 0.75 | 99 | 1012.0 |
| 20260509132320 | 63 | 44 | 0.0 | 0.0 | 0.24 | 0.72 | 0.72 | 99 | 1012.1 |
| 20260509131816 | 63 | 60 | 0.0 | 0.0 | 0.24 | 0.70 | 0.70 | 99 | 1012.2 |
| 20260509131313 | 63 | 70 | 0.0 | 0.0 | 0.19 | 0.68 | 0.68 | 99 | 1012.3 |
| 20260509130809 | 63 | 73 | 0.0 | 1.0 | 0.19 | 0.66 | 0.66 | 99 | 1012.6 |
| 20260509130305 | 63 | 32 | 0.0 | 0.0 | 0.24 | 0.65 | 0.65 | 99 | 1013.0 |
| 20260509125802 | 63 | 357 | 1.0 | 1.0 | 0.24 | 0.63 | 0.63 | 99 | 1013.2 |
| 20260509125259 | 63 | 36 | 0.0 | 0.0 | 0.24 | 0.61 | 0.61 | 99 | 1013.3 |
| 20260509124755 | 63 | 352 | 0.0 | 0.0 | 0.17 | 0.59 | 0.59 | 99 | 1013.4 |
| 20260509124251 | 63 | 40 | 0.0 | 0.0 | 0.24 | 0.57 | 0.57 | 99 | 1013.1 |
| 20260509123750 | 63 | 1 | 1.0 | 2.0 | 0.31 | 0.56 | 0.56 | 99 | 1013.3 |
| 20260509123247 | 63 | 2 | 1.0 | 1.0 | 0.24 | 0.53 | 0.53 | 99 | 1013.7 |
| 20260509122742 | 63 | 51 | 0.0 | 0.0 | 0.19 | 0.51 | 0.51 | 99 | 1013.9 |
| 20260509122239 | 63 | 70 | 0.0 | 0.0 | 0.19 | 0.49 | 0.49 | 99 | 1013.7 |
| 20260509121736 | 63 | 71 | 0.0 | 0.0 | 0.24 | 0.48 | 0.48 | 99 | 1013.5 |
| 20260509121233 | 63 | 91 | 0.0 | 0.0 | 0.31 | 0.46 | 0.46 | 99 | 1013.5 |
| 20260509120732 | 63 | 93 | 2.0 | 2.0 | 0.31 | 0.44 | 0.44 | 99 | 1013.2 |
| 20260509120229 | 63 | 330 | 2.0 | 2.0 | 0.64 | 0.41 | 0.41 | 99 | 1013.0 |
| 20260509115727 | 63 | 331 | 5.0 | 6.0 | 0.59 | 0.39 | 0.39 | 99 | 1013.0 |
| 20260509115224 | 63 | 160 | 1.0 | 2.0 | 0.14 | 0.30 | 0.30 | 99 | 1012.9 |
| 20260509114722 | 63 | 348 | 2.0 | 3.0 | 0.19 | 0.29 | 0.29 | 99 | 1013.1 |
| 20260509114221 | 63 | 336 | 3.0 | 5.0 | 0.40 | 0.28 | 0.28 | 99 | 1013.1 |
| 20260509113719 | 64 | 331 | 3.0 | 5.0 | 0.78 | 0.26 | 0.26 | 99 | 1012.8 |
| 20260509113216 | 64 | 329 | 3.0 | 3.0 | 0.97 | 0.21 | 0.21 | 99 | 1013.0 |
| 20260509112713 | 64 | 35 | 5.0 | 6.0 | 0.59 | 0.13 | 0.13 | 99 | 1013.0 |
| 20260509112209 | 64 | 9 | 5.0 | 9.0 | 0.19 | 0.05 | 0.05 | 99 | 1013.5 |
| 20260509111706 | 64 | 348 | 3.0 | 3.0 | 0.07 | 0.03 | 0.03 | 99 | 1011.8 |
| 20260509111203 | 64 | 52 | 0.0 | 0.0 | 0.05 | 0.02 | 0.02 | 99 | 1010.9 |
| 20260509110701 | 64 | 20 | 0.0 | 0.0 | 0.05 | 0.02 | 0.02 | 99 | 1010.9 |
| 20260509110157 | 64 | 45 | 0.0 | 0.0 | 0.00 | 0.01 | 0.01 | 99 | 1011.1 |
| 20260509105655 | 64 | 45 | 0.0 | 0.0 | 0.00 | 0.01 | 0.01 | 99 | 1010.9 |
| 20260509105152 | 64 | 46 | 0.0 | 0.0 | 0.00 | 0.01 | 0.01 | 99 | 1011.0 |
| 20260509104649 | 64 | 47 | 0.0 | 0.0 | 0.00 | 0.01 | 0.01 | 99 | 1010.4 |
| 20260509104146 | 64 | 9 | 0.0 | 0.0 | 0.07 | 0.01 | 0.01 | 99 | 1010.9 |
| 20260509103644 | 64 | 334 | 1.0 | 1.0 | 0.07 | 0.01 | 0.01 | 99 | 1010.9 |
| 20260509103142 | 64 | 8 | 0.0 | 0.0 | 0.00 | 0.00 | 0.00 | 99 | 1010.6 |
| 20260509102640 | 64 | 41 | 0.0 | 0.0 | 0.00 | 0.00 | 0.00 | 99 | 1010.5 |
| 20260509102136 | 64 | 9 | 0.0 | 0.0 | 0.00 | 0.00 | 0.00 | 99 | 1010.6 |
| 20260509101632 | 64 | 342 | 2.0 | 2.0 | 0.00 | 0.00 | 0.00 | 99 | 1010.5 |
| 20260509101129 | 64 | 41 | 0.0 | 1.0 | 0.00 | 0.00 | 0.00 | 99 | 1010.5 |
| 20260509100627 | 64 | 101 | 1.0 | 1.0 | 0.00 | 0.00 | 0.00 | 99 | 1010.2 |
| 20260509100124 | 64 | 42 | 0.0 | 0.0 | 0.00 | 0.00 | 0.00 | 99 | 1010.3 |
| 20260509095620 | 64 | 22 | 0.0 | 0.0 | 0.00 | 0.00 | 0.00 | 99 | 1010.2 |
| 20260509095118 | 64 | 28 | 0.0 | 0.0 | 0.00 | 0.00 | 0.00 | 99 | 1010.4 |
| 20260509094614 | 64 | 352 | 0.0 | 1.0 | 0.00 | 0.00 | 0.00 | 99 | 1010.1 |
| 20260509094111 | 64 | 3 | 1.0 | 1.0 | 0.00 | 0.00 | 0.00 | 99 | 1009.9 |
| 20260509093610 | 64 | 7 | 0.0 | 0.0 | 0.00 | 0.00 | 0.00 | 99 | 1009.8 |